Location: Balaclava NSW 2575, Australia
(34.4510°S, 150.4953°E)
Time: 16:06:19
(UTC+10:00)

ISS - Visible Passes

Search period start: 05 August 2021 00:00
Search period end: 15 August 2021 00:00
Orbit: 419 x 421 km, 51.6° (Epoch: 04 August)

Date Brightness Start Highest point End Pass type
(mag) Time Alt. Az. Time Alt. Az. Time Alt. Az.
06 Aug -1.1 05:40:24 10° S 05:42:09 13° SSE 05:43:55 10° ESE visible
08 Aug -2.1 05:41:48 11° SSW 05:44:39 30° SE 05:47:42 10° E visible
09 Aug -1.5 04:56:34 19° SSE 04:57:10 19° SSE 04:59:45 10° E visible
10 Aug -3.8 05:44:26 18° SW 05:46:51 82° NW 05:50:14 10° NE visible
11 Aug -3.2 04:59:24 52° SSE 04:59:31 53° SE 05:02:50 10° ENE visible
12 Aug -0.5 04:14:27 14° E 04:14:27 14° E 04:15:09 10° E visible
12 Aug -2.2 05:47:28 17° W 05:48:46 22° NW 05:51:27 10° N visible
13 Aug -2.4 05:02:38 30° N 05:02:38 30° N 05:04:45 10° NNE visible
